Regional Weather Roundup
Issued by NWS

Home | Current Version | Previous Version | Text Only | Print | Product List | Glossary Off
Versions: 1 2 3 4 5 6 7 8 9 10 11 12 13 14 15 16 17 18 19 20 21 22 23 24 25 26 27 28 29 30 31 32 33 34 35 36 37 38 39 40 41 42 43 44 45 46 47 48 49 50

000
ASUS43 KFSD 231702
RWRSD

WEATHER ROUNDUP FOR SOUTH DAKOTA
NATIONAL WEATHER SERVICE SIOUX FALLS SD
1100 AM CST THU NOV 23 2017

NOTE: "FAIR" INDICATES FEW OR NO CLOUDS BELOW 12,000 FEET WITH NO
SIGNIFICANT WEATHER AND/OR OBSTRUCTIONS TO VISIBILITY.


SDZ001>005-009-010-012>017-231800-
NORTHWEST AND NORTH CENTRAL SOUTH DAKOTA

CITY           SKY/WX    TMP DP  RH WIND       PRES   REMARKS
FAITH            N/A     59  41  51 SW13      29.83F
MOBRIDGE       CLOUDY    48  39  71 SE10      29.78F
$$

SDZ012>016-024>037-041>051-057-063-072>074-231800-
SOUTHWEST AND SOUTH CENTRAL SOUTH DAKOTA

CITY           SKY/WX    TMP DP  RH WIND       PRES   REMARKS
RAPID CTY ARPT SUNNY     64  38  38 SE5       29.91F
PIERRE         CLOUDY    51  40  65 SW12      29.85F
CUSTER         SUNNY     57  33  40 SW8       30.02F
ELLSWORTH AFB  SUNNY     68  36  31 SW8       29.89F
PHILIP         SUNNY     59  42  53 W14       29.88F
PINE RIDGE     SUNNY     61  40  45 W9        29.99F
SPEARFISH      FAIR      68  34  28 SW16      29.91F
WINNER         FAIR      62  43  49 S8        29.91F
$$

SDZ004>011-016>023-039-040-231800-
NORTHEAST SOUTH DAKOTA

CITY           SKY/WX    TMP DP  RH WIND       PRES   REMARKS
ABERDEEN       CLOUDY    41  31  67 S16       29.84F
WATERTOWN      CLOUDY    42  31  64 S12       29.87F
BROOKINGS      CLOUDY    41  27  57 S9        29.92F
SISSETON         N/A     40  27  59 SE12      29.83F
$$

SDZ017-020-022-023-036>040-048>070-231800-
SOUTHEAST SOUTH DAKOTA

CITY           SKY/WX    TMP DP  RH WIND       PRES   REMARKS
SIOUX FALLS    CLOUDY    44  29  55 SW7       29.96F
HURON          CLOUDY    41  30  65 S14       29.90F
CHAMBERLAIN    CLOUDY    56  43  62 SW6       29.90F
MITCHELL       CLOUDY    46  32  58 S10       29.94F
YANKTON        CLOUDY    46  33  60 SE7       29.97F
$$

ABBREVIATIONS USED IN REMARKS
   TC - TEMPERATURE IN CELSIUS
  WCI - WIND CHILL INDEX
   HX - HEAT INDEX
  VSB - VISIBILITY





USA.gov is the U.S. government's official web portal to all federal, state and local government web resources and services.